TJS-14

Last updated on Tue Sep 22 2026 00:03:16 GMT+0000 (Coordinated Universal Time)

1 62804U 25017A 26264.63527801 .00000111 00000+0 00000+0 0 9998 2 62804 0.5823 305.4564 0003261 322.2764 339.8776 1.00271726 6235
UTC large
Height (km)
Speed (km/s)
/
Latitude / Longitude
Inclination (degrees)
Orbital Period (minutes)
Azimuth
Elevation
Range (km)
Doppler Factor

Next 0 passes for location: London (51.5072 / 0.1276)

No passes found over London.
TJS-14